| time (UTC) | temp C | wind direction | speed KPH | gust KPH | rain 1hr cm | rain 24hr cm | rain mn cm | humidity % | barometer mb |
| 20260507093505 | 10 | 276 | 3.2 | 8.0 | 0.00 | 0.41 | 0.00 | 85 | 1014.6 |
| 20260507093006 | 10 | 274 | 3.2 | 12.9 | 0.00 | 0.41 | 0.00 | 85 | 1014.6 |
| 20260507091506 | 10 | 270 | 8.0 | 12.9 | 0.00 | 0.41 | 0.00 | 86 | 1014.6 |
| 20260507090505 | 10 | 302 | 4.8 | 12.9 | 0.00 | 0.41 | 0.00 | 86 | 1014.2 |
| 20260507090006 | 10 | 287 | 8.0 | 12.9 | 0.00 | 0.41 | 0.00 | 86 | 1014.2 |
| 20260507084505 | 10 | 286 | 9.7 | 11.3 | 0.00 | 0.41 | 0.00 | 86 | 1014.2 |
| 20260507084006 | 10 | 282 | 6.4 | 11.3 | 0.00 | 0.41 | 0.00 | 87 | 1014.1 |
| 20260507083507 | 10 | 279 | 8.0 | 12.9 | 0.00 | 0.41 | 0.00 | 87 | 1014.2 |
| 20260507083006 | 9 | 282 | 4.8 | 22.5 | 0.00 | 0.41 | 0.00 | 87 | 1014.2 |
| 20260507081506 | 10 | 280 | 4.8 | 11.3 | 0.00 | 0.41 | 0.00 | 86 | 1013.9 |
| 20260507080505 | 10 | 271 | 8.0 | 12.9 | 0.00 | 0.41 | 0.00 | 87 | 1013.9 |
| 20260507080005 | 10 | 279 | 4.8 | 11.3 | 0.00 | 0.41 | 0.00 | 86 | 1013.9 |
| 20260507074506 | 9 | 316 | 8.0 | 12.9 | 0.00 | 0.41 | 0.00 | 88 | 1013.9 |
| 20260507074005 | 9 | 283 | 3.2 | 8.0 | 0.00 | 0.41 | 0.00 | 88 | 1013.5 |
| 20260507073005 | 9 | 276 | 4.8 | 12.9 | 0.00 | 0.41 | 0.00 | 88 | 1013.5 |
| 20260507071506 | 9 | 293 | 4.8 | 12.9 | 0.00 | 0.41 | 0.00 | 87 | 1013.2 |
| 20260507071005 | 9 | 281 | 6.4 | 16.1 | 0.00 | 0.41 | 0.00 | 87 | 1013.2 |
| 20260507070506 | 9 | 263 | 3.2 | 11.3 | 0.00 | 0.41 | 0.00 | 87 | 1013.2 |
| 20260507070010 | 9 | 287 | 3.2 | 12.9 | 0.00 | 0.41 | 0.00 | 87 | 1013.2 |
| 20260507064506 | 9 | 203 | 4.8 | 16.1 | 0.00 | 0.41 | 0.00 | 90 | 1012.9 |
| 20260507064005 | 9 | 285 | 6.4 | 8.0 | 0.00 | 0.41 | 0.00 | 90 | 1013.2 |
| 20260507061006 | 8 | 280 | 1.6 | 4.8 | 0.00 | 0.41 | 0.00 | 91 | 1012.5 |
| 20260507060505 | 8 | 295 | 9.7 | 20.9 | 0.00 | 0.41 | 0.00 | 91 | 1012.3 |
| 20260507060006 | 8 | 285 | 11.3 | 24.1 | 0.00 | 0.41 | 0.00 | 90 | 1012.5 |
| 20260507054507 | 8 | 275 | 8.0 | 24.1 | 0.00 | 0.41 | 0.00 | 90 | 1012.5 |
| 20260507053506 | 8 | 326 | 9.7 | 12.9 | 0.00 | 0.41 | 0.00 | 91 | 1012.5 |
| 20260507053007 | 8 | 287 | 4.8 | 11.3 | 0.00 | 0.41 | 0.00 | 91 | 1012.2 |
| 20260507051506 | 8 | 285 | 1.6 | 4.8 | 0.00 | 0.41 | 0.00 | 92 | 1012.1 |
| 20260507051005 | 8 | 271 | 0.0 | 4.8 | 0.00 | 0.41 | 0.00 | 92 | 1011.9 |
| 20260507050506 | 8 | 271 | 3.2 | 8.0 | 0.00 | 0.41 | 0.00 | 91 | 1012.2 |
| 20260507044005 | 8 | 278 | 8.0 | 12.9 | 0.00 | 0.41 | 0.00 | 90 | 1011.9 |
| 20260507043506 | 8 | 283 | 4.8 | 8.0 | 0.00 | 0.41 | 0.00 | 90 | 1011.6 |
| 20260507041505 | 8 | 285 | 3.2 | 4.8 | 0.00 | 0.41 | 0.00 | 89 | 1011.5 |
| 20260507041006 | 8 | 293 | 3.2 | 8.0 | 0.00 | 0.41 | 0.00 | 89 | 1011.5 |
| 20260507040505 | 8 | 284 | 8.0 | 11.3 | 0.00 | 0.41 | 0.00 | 90 | 1011.5 |
| 20260507034505 | 9 | 276 | 4.8 | 11.3 | 0.00 | 0.41 | 0.00 | 90 | 1011.2 |
| 20260507033506 | 8 | 238 | 1.6 | 4.8 | 0.00 | 0.41 | 0.00 | 91 | 1011.2 |
| 20260507031505 | 9 | 274 | 0.0 | 3.2 | 0.00 | 0.41 | 0.00 | 90 | 1010.8 |
| 20260507031005 | 8 | 277 | 1.6 | 4.8 | 0.00 | 0.41 | 0.00 | 90 | 1011.0 |
| 20260507030505 | 9 | 281 | 0.0 | 0.0 | 0.00 | 0.41 | 0.00 | 91 | 1010.8 |
| 20260507030005 | 9 | 270 | 0.0 | 8.0 | 0.00 | 0.41 | 0.00 | 90 | 1011.0 |
| 20260507024505 | 9 | 282 | 1.6 | 8.0 | 0.00 | 0.41 | 0.00 | 90 | 1011.2 |
| 20260507024005 | 8 | 285 | 1.6 | 4.8 | 0.00 | 0.41 | 0.00 | 90 | 1010.8 |
| 20260507023506 | 9 | 284 | 3.2 | 4.8 | 0.00 | 0.41 | 0.00 | 91 | 1010.8 |
| 20260507023005 | 9 | 282 | 1.6 | 4.8 | 0.00 | 0.41 | 0.00 | 91 | 1010.8 |
| 20260507021506 | 8 | 278 | 0.0 | 8.0 | 0.00 | 0.41 | 0.00 | 91 | 1010.5 |
| 20260507021005 | 8 | 270 | 1.6 | 3.2 | 0.00 | 0.41 | 0.00 | 91 | 1010.5 |
| 20260507020505 | 9 | 262 | 0.0 | 0.0 | 0.00 | 0.41 | 0.00 | 92 | 1010.5 |
| 20260507014505 | 9 | 281 | 3.2 | 4.8 | 0.00 | 0.41 | 0.00 | 91 | 1010.4 |
| 20260507014005 | 9 | 290 | 3.2 | 4.8 | 0.00 | 0.41 | 0.00 | 91 | 1010.2 |
| 20260507013005 | 9 | 275 | 0.0 | 3.2 | 0.00 | 0.41 | 0.00 | 91 | 1010.4 |
| 20260507011505 | 9 | 273 | 0.0 | 3.2 | 0.00 | 0.41 | 0.00 | 91 | 1010.5 |
| 20260507010505 | 9 | 260 | 1.6 | 3.2 | 0.00 | 0.41 | 0.00 | 91 | 1010.5 |
| 20260507010005 | 9 | 234 | 1.6 | 3.2 | 0.00 | 0.41 | 0.00 | 91 | 1010.2 |
| 20260507004005 | 9 | 277 | 3.2 | 4.8 | 0.00 | 0.41 | 0.00 | 90 | 1010.2 |
| 20260507003004 | 9 | 285 | 1.6 | 4.8 | 0.00 | 0.41 | 0.00 | 90 | 1010.0 |
| 20260507001505 | 9 | 275 | 1.6 | 4.8 | 0.00 | 0.41 | 0.00 | 90 | 1010.2 |
| 20260507001005 | 9 | 285 | 3.2 | 4.8 | 0.00 | 0.41 | 0.00 | 90 | 1010.2 |
| 20260507000505 | 9 | 273 | 3.2 | 11.3 | 0.00 | 0.41 | 0.00 | 90 | 1010.2 |
| 20260507000006 | 9 | 279 | 4.8 | 16.1 | 0.00 | 0.41 | 0.00 | 90 | 1010.2 |
| 20260506234004 | 9 | 275 | 1.6 | 8.0 | 0.00 | 0.41 | 0.00 | 90 | 1009.8 |
| 20260506233505 | 9 | 265 | 3.2 | 8.0 | 0.00 | 0.41 | 0.00 | 90 | 1009.9 |
| 20260506233006 | 9 | 276 | 3.2 | 8.0 | 0.00 | 0.41 | 0.00 | 90 | 1010.2 |
| 20260506231505 | 9 | 273 | 6.4 | 12.9 | 0.00 | 0.41 | 0.00 | 90 | 1009.8 |
| 20260506230504 | 9 | 278 | 3.2 | 8.0 | 0.00 | 0.41 | 0.00 | 90 | 1009.8 |
| 20260506230005 | 9 | 288 | 3.2 | 12.9 | 0.00 | 0.41 | 0.00 | 90 | 1009.8 |
| 20260506224504 | 9 | 278 | 1.6 | 8.0 | 0.20 | 0.41 | 0.00 | 91 | 1009.8 |
| 20260506224005 | 9 | 284 | 1.6 | 4.8 | 0.20 | 0.41 | 0.00 | 91 | 1009.8 |
| 20260506223505 | 9 | 280 | 1.6 | 4.8 | 0.20 | 0.41 | 0.00 | 91 | 1009.6 |
| 20260506223005 | 9 | 287 | 3.2 | 12.9 | 0.20 | 0.41 | 0.00 | 91 | 1009.8 |
| 20260506221505 | 9 | 279 | 6.4 | 11.3 | 0.20 | 0.41 | 0.00 | 90 | 1009.5 |
| 20260506221004 | 9 | 293 | 4.8 | 8.0 | 0.20 | 0.41 | 0.00 | 90 | 1009.5 |
| 20260506220505 | 9 | 280 | 4.8 | 11.3 | 0.20 | 0.41 | 0.00 | 90 | 1009.5 |
| 20260506214505 | 9 | 279 | 4.8 | 16.1 | 0.00 | 0.20 | 0.20 | 90 | 1009.2 |
| 20260506214005 | 9 | 308 | 6.4 | 11.3 | 0.00 | 0.20 | 0.20 | 90 | 1009.5 |
| 20260506213005 | 9 | 288 | 8.0 | 12.9 | 0.00 | 0.20 | 0.20 | 90 | 1009.1 |
| 20260506211506 | 9 | 295 | 3.2 | 4.8 | 0.00 | 0.20 | 0.20 | 90 | 1009.1 |
| 20260506211005 | 9 | 304 | 3.2 | 20.9 | 0.00 | 0.20 | 0.20 | 90 | 1009.1 |
| 20260506210504 | 9 | 292 | 4.8 | 12.9 | 0.00 | 0.20 | 0.20 | 89 | 1009.1 |
| 20260506204504 | 10 | 283 | 3.2 | 8.0 | 0.00 | 0.20 | 0.20 | 90 | 1009.1 |
| 20260506204005 | 10 | 285 | 3.2 | 11.3 | 0.00 | 0.20 | 0.20 | 90 | 1008.9 |
| 20260506203505 | 10 | 317 | 4.8 | 11.3 | 0.00 | 0.20 | 0.20 | 91 | 1008.8 |
| 20260506203005 | 10 | 278 | 4.8 | 16.1 | 0.00 | 0.20 | 0.20 | 91 | 1009.0 |
| 20260506201505 | 10 | 288 | 8.0 | 11.3 | 0.00 | 0.20 | 0.20 | 91 | 1008.8 |
| 20260506201005 | 10 | 340 | 3.2 | 8.0 | 0.00 | 0.20 | 0.20 | 91 | 1009.0 |
| 20260506200504 | 10 | 317 | 4.8 | 11.3 | 0.00 | 0.20 | 0.20 | 91 | 1008.8 |
| 20260506200004 | 10 | 321 | 4.8 | 12.9 | 0.00 | 0.20 | 0.20 | 91 | 1008.8 |
| 20260506194505 | 10 | 304 | 4.8 | 16.1 | 0.00 | 0.20 | 0.20 | 91 | 1008.5 |
| 20260506194005 | 10 | 311 | 6.4 | 16.1 | 0.00 | 0.20 | 0.20 | 90 | 1008.6 |
| 20260506193505 | 10 | 355 | 9.7 | 16.1 | 0.00 | 0.20 | 0.20 | 90 | 1008.8 |
| 20260506193005 | 10 | 329 | 4.8 | 16.1 | 0.00 | 0.20 | 0.20 | 90 | 1008.5 |
| 20260506191005 | 11 | 327 | 3.2 | 4.8 | 0.00 | 0.20 | 0.20 | 89 | 1008.1 |
| 20260506190504 | 11 | 309 | 0.0 | 3.2 | 0.00 | 0.20 | 0.20 | 89 | 1007.9 |
| 20260506190005 | 11 | 286 | 0.0 | 8.0 | 0.00 | 0.20 | 0.20 | 89 | 1007.8 |
| 20260506184505 | 11 | 276 | 4.8 | 8.0 | 0.00 | 0.20 | 0.20 | 89 | 1007.8 |
| 20260506184004 | 11 | 289 | 3.2 | 4.8 | 0.00 | 0.20 | 0.20 | 89 | 1007.5 |
| 20260506183005 | 11 | 289 | 6.4 | 16.1 | 0.00 | 0.20 | 0.20 | 88 | 1007.5 |
| 20260506181505 | 11 | 278 | 6.4 | 12.9 | 0.00 | 0.20 | 0.20 | 88 | 1007.4 |
| 20260506181005 | 11 | 269 | 9.7 | 12.9 | 0.00 | 0.20 | 0.20 | 88 | 1007.1 |
| 20260506180505 | 11 | 315 | 4.8 | 12.9 | 0.00 | 0.20 | 0.20 | 88 | 1007.1 |
| 20260506180006 | 11 | 273 | 9.7 | 12.9 | 0.00 | 0.20 | 0.20 | 89 | 1007.1 |
| 20260506173505 | 11 | 297 | 4.8 | 8.0 | 0.00 | 0.20 | 0.20 | 88 | 1007.1 |
| 20260506173004 | 11 | 281 | 4.8 | 11.3 | 0.00 | 0.20 | 0.20 | 89 | 1007.1 |
| 20260506171505 | 11 | 286 | 4.8 | 8.0 | 0.00 | 0.20 | 0.20 | 89 | 1006.8 |
| 20260506171004 | 11 | 291 | 6.4 | 11.3 | 0.00 | 0.20 | 0.20 | 89 | 1006.8 |
| 20260506170504 | 11 | 274 | 8.0 | 12.9 | 0.00 | 0.20 | 0.20 | 89 | 1006.8 |
| 20260506170004 | 11 | 277 | 4.8 | 20.9 | 0.00 | 0.20 | 0.20 | 89 | 1006.8 |
| 20260506164505 | 11 | 291 | 11.3 | 20.9 | 0.00 | 0.20 | 0.20 | 89 | 1006.8 |
| 20260506164004 | 11 | 282 | 8.0 | 16.1 | 0.00 | 0.20 | 0.20 | 89 | 1006.8 |
| 20260506163505 | 12 | 276 | 9.7 | 16.1 | 0.00 | 0.20 | 0.20 | 89 | 1006.8 |
| 20260506163004 | 12 | 280 | 4.8 | 12.9 | 0.00 | 0.20 | 0.20 | 90 | 1006.8 |
| 20260506161505 | 12 | 294 | 11.3 | 16.1 | 0.00 | 0.20 | 0.20 | 89 | 1006.8 |
| 20260506160504 | 12 | 282 | 9.7 | 16.1 | 0.03 | 0.23 | 0.20 | 89 | 1006.8 |
| 20260506160004 | 12 | 317 | 8.0 | 16.1 | 0.03 | 0.23 | 0.20 | 90 | 1006.4 |
| 20260506154504 | 12 | 301 | 11.3 | 11.3 | 0.03 | 0.23 | 0.20 | 92 | 1006.8 |
| 20260506153505 | 13 | 285 | 1.6 | 4.8 | 0.03 | 0.23 | 0.20 | 91 | 1006.4 |
| 20260506151004 | 13 | 283 | 9.7 | 20.9 | 0.15 | 0.28 | 0.20 | 90 | 1006.4 |
| 20260506150505 | 13 | 276 | 8.0 | 12.9 | 0.13 | 0.25 | 0.18 | 91 | 1006.1 |
| 20260506150005 | 13 | 292 | 4.8 | 20.9 | 0.13 | 0.28 | 0.18 | 90 | 1006.1 |
| 20260506144504 | 13 | 293 | 9.7 | 20.9 | 0.13 | 0.28 | 0.18 | 89 | 1005.8 |
| 20260506144004 | 13 | 312 | 12.9 | 22.5 | 0.13 | 0.30 | 0.18 | 90 | 1005.8 |
| 20260506143504 | 13 | 288 | 11.3 | 27.4 | 0.13 | 0.30 | 0.18 | 90 | 1005.8 |
| 20260506143004 | 13 | 286 | 16.1 | 22.5 | 0.13 | 0.30 | 0.18 | 92 | 1005.8 |
| 20260506141004 | 14 | 273 | 3.2 | 11.3 | 0.00 | 0.20 | 0.05 | 88 | 1005.4 |
| 20260506140504 | 14 | 281 | 8.0 | 11.3 | 0.00 | 0.20 | 0.05 | 87 | 1005.1 |
| 20260506140004 | 15 | 286 | 8.0 | 11.3 | 0.00 | 0.20 | 0.05 | 86 | 1005.4 |
| 20260506134504 | 15 | 227 | 0.0 | 4.8 | 0.03 | 0.25 | 0.05 | 87 | 1005.4 |
| 20260506134005 | 14 | 279 | 1.6 | 4.8 | 0.03 | 0.25 | 0.05 | 87 | 1005.7 |
| 20260506133504 | 14 | 286 | 1.6 | 8.0 | 0.03 | 0.25 | 0.05 | 88 | 1005.8 |
| 20260506133004 | 13 | 279 | 0.0 | 12.9 | 0.05 | 0.25 | 0.05 | 88 | 1005.8 |
| 20260506131504 | 14 | 261 | 3.2 | 16.1 | 0.05 | 0.28 | 0.05 | 89 | 1005.8 |
| 20260506131004 | 14 | 271 | 4.8 | 11.3 | 0.05 | 0.28 | 0.05 | 89 | 1005.4 |
| 20260506130505 | 13 | 283 | 3.2 | 4.8 | 0.05 | 0.28 | 0.05 | 89 | 1005.5 |
| 20260506130005 | 13 | 349 | 3.2 | 12.9 | 0.05 | 0.28 | 0.05 | 90 | 1005.4 |
| 20260506124504 | 14 | 16 | 3.2 | 4.8 | 0.03 | 0.25 | 0.03 | 87 | 1005.1 |
| 20260506124004 | 15 | 307 | 0.0 | 3.2 | 0.03 | 0.25 | 0.03 | 86 | 1005.4 |
| 20260506123004 | 15 | 282 | 4.8 | 11.3 | 0.00 | 0.23 | 0.00 | 83 | 1005.1 |
| 20260506121505 | 16 | 269 | 1.6 | 3.2 | 0.00 | 0.25 | 0.00 | 81 | 1005.1 |
| 20260506120504 | 15 | 270 | 0.0 | 8.0 | 0.00 | 0.25 | 0.00 | 86 | 1005.4 |
| 20260506120004 | 15 | 298 | 4.8 | 11.3 | 0.00 | 0.25 | 0.00 | 84 | 1005.4 |
| 20260506114504 | 16 | 202 | 6.4 | 12.9 | 0.00 | 0.25 | 0.00 | 83 | 1005.2 |
| 20260506114005 | 15 | 295 | 1.6 | 4.8 | 0.00 | 0.25 | 0.00 | 83 | 1005.4 |
| 20260506113504 | 15 | 287 | 3.2 | 8.0 | 0.00 | 0.25 | 0.00 | 84 | 1005.4 |
| 20260506113004 | 15 | 293 | 1.6 | 11.3 | 0.00 | 0.25 | 0.00 | 82 | 1005.4 |
| 20260506111504 | 15 | 49 | 3.2 | 11.3 | 0.00 | 0.25 | 0.00 | 84 | 1005.2 |
| 20260506111004 | 15 | 58 | 8.0 | 16.1 | 0.00 | 0.25 | 0.00 | 86 | 1005.4 |
| 20260506110504 | 14 | 300 | 4.8 | 8.0 | 0.00 | 0.25 | 0.00 | 87 | 1005.4 |
| 20260506104504 | 15 | 244 | 1.6 | 3.2 | 0.00 | 0.25 | 0.00 | 86 | 1005.6 |
| 20260506104004 | 15 | 242 | 0.0 | 3.2 | 0.00 | 0.25 | 0.00 | 85 | 1005.7 |
| 20260506103505 | 15 | 250 | 0.0 | 4.8 | 0.00 | 0.25 | 0.00 | 83 | 1005.8 |
| 20260506103004 | 16 | 49 | 0.0 | 12.9 | 0.00 | 0.25 | 0.00 | 83 | 1005.4 |
| 20260506101504 | 15 | 309 | 3.2 | 16.1 | 0.00 | 0.25 | 0.00 | 84 | 1005.5 |
| 20260506101004 | 14 | 275 | 6.4 | 16.1 | 0.00 | 0.25 | 0.00 | 85 | 1005.4 |
| 20260506100503 | 15 | 298 | 4.8 | 11.3 | 0.00 | 0.25 | 0.00 | 85 | 1005.7 |
| 20260506100004 | 15 | 267 | 3.2 | 16.1 | 0.00 | 0.25 | 0.00 | 85 | 1005.4 |
| 20260506094004 | 15 | 299 | 1.6 | 3.2 | 0.00 | 0.25 | 0.00 | 86 | 1005.8 |